Visibility
15.0 15.0 15.0 15.0 15.0 15.0 15.0 15.0 15.0 15.0 15.0 15.0 15.0 15.0 15.0 15.0 15.0 15.0 15.0 15.0 12.3 8.6
15.0 15.0 15.0 15.0 15.0 15.0 15.0 15.0 15.0 15.0 15.0 15.0 15.0 15.0 15.0 15.0 15.0 15.0 15.0 15.0 13.2 10.5
15.0 15.0 15.0 15.0 15.0 15.0 15.0 15.0 15.0 15.0 15.0 15.0 15.0 15.0 15.0 15.0 15.0 14.7 15.0 15.0 13.9 12.5
15.0 15.0 15.0 15.0 15.0 15.0 15.0 15.0 15.0 15.0 15.0 15.0 15.0 15.0 15.0 15.0 8.1 0.1 3.7 3.8 11.6 14.2
15.0 15.0 15.0 15.0 15.0 15.0 15.0 15.0 15.0 15.0 15.0 15.0 15.0 15.0 14.9 5.1 0.4 0.1 0.1 0.5 1.6 3.6
15.0 15.0 15.0 15.0 15.0 15.0 15.0 15.0 15.0 15.0 15.0 15.0 15.0 15.0 12.0 15.0 1.6 3.5 7.6 14.0 11.0 3.5
15.0 15.0 15.0 15.0 15.0 15.0 15.0 15.0 15.0 15.0 15.0 15.0 15.0 15.0 15.0 5.7 0.5 0.9 12.0 15.0 10.5 9.9
15.0 15.0 15.0 15.0 15.0 15.0 15.0 15.0 15.0 15.0 12.1 15.0 15.0 15.0 15.0 15.0 9.2 15.0 10.9 10.3 12.9 14.8
15.0 15.0 15.0 15.0 15.0 15.0 15.0 15.0 15.0 15.0 6.3 12.5 2.9 0.1 0.1 0.6 7.9 15.0 5.6 0.6 15.0 15.0
15.0 15.0 15.0 15.0 15.0 15.0 15.0 15.0 15.0 11.5 7.1 15.0 0.2 0.0 0.1 0.1 8.4 14.5 15.0 10.4 0.5 10.7
15.0 15.0 15.0 15.0 15.0 15.0 15.0 15.0 15.0 15.0 0.1 0.1 0.2 0.1 0.4 1.1 15.0 12.6 9.5 15.0 15.0 15.0
15.0 15.0 15.0 15.0 15.0 2.2 0.1 0.1 0.1 0.1 0.1 0.1 0.1 0.6 6.3 14.4 15.0 9.7 15.0 15.0 15.0 13.2
15.0 13.8 0.4 0.1 0.1 0.2 0.3 0.1 0.3 0.1 5.5 0.3 0.1 5.4 15.0 15.0 14.9 14.3 14.6 13.6 6.3 9.5
15.0 1.2 4.2 0.4 8.9 15.0 15.0 13.2 0.6 0.2 0.2 0.2 3.6 4.8 12.3 13.8 15.0 4.4 2.9 12.5 15.0 15.0